Simultaneous Nadir Overpasses (SNOs) Predictions

Prediction of SNOs between LANDSAT-8 and METOP-A Satellite Orbit:

Table of predicted SNOs for the next 14.0 days since TLE Epoch: 10/20/2018
Index Date (LANDSAT-8) Time (LANDSAT-8) Lat,Lon (LANDSAT-8) SZA (LANDSAT-8 ) Date (METOP-A) Time (METOP-A) Lat,Lon (METOP-A) SZA (METOP-A ) Distance(km) Time Diff (sec)
1 10/20/2018 12:15:21 -81.41,-138.80 85.32 10/20/2018 12:14:42 -81.41,-138.82 85.34 0.60 39
2 10/20/2018 13:04:47 81.42, 28.94 94.71 10/20/2018 13:05:22 81.41, 28.93 94.73 0.62 35
3 10/23/2018 07:49:36 -81.41, -72.33 84.31 10/23/2018 07:48:57 -81.41, -72.41 84.34 1.50 39
4 10/23/2018 08:39:02 81.42, 95.38 95.72 10/23/2018 08:39:37 81.41, 95.31 95.72 1.36 35
5 10/26/2018 03:23:52 -81.41, -5.91 83.33 10/26/2018 03:23:13 -81.41, -6.02 83.37 2.04 39
6 10/26/2018 04:13:18 81.42, 161.79 96.69 10/26/2018 04:13:53 81.41, 161.68 96.69 1.87 35
7 10/28/2018 22:58:08 -81.41, 60.48 82.39 10/28/2018 22:57:29 -81.41, 60.35 82.43 2.14 39
8 10/28/2018 23:47:34 81.41,-131.84 97.63 10/28/2018 23:48:09 81.41,-131.97 97.63 2.04 35
9 10/31/2018 18:32:23 -81.41, 126.82 81.48 10/31/2018 18:31:44 -81.41, 126.71 81.51 1.83 39




NCC Satellite Simultaneous Nadir Overpasses (SNOs) Prediction Service
